Date String (YYYY-MM-DD hh:mm:ss) UTC,Instrument flags,Ambient pressure (hPa),Sample flow (lpm),Bypass flow (lpm),Sample temperature (°C),Ambient temperature (°C),ASC tube jacket temperature (°C),LED temperature (°C),Box temperature (°C),Sample RH (%),Span deviation,Mass concentration (μg/m³),Mass concentration (μg/m³),Mass concentration (μg/m³)
DateTimeUTC,F1_M11,P_M11,Q1_M11,Q2_M11,T1_M11,T2_M11,T3_M11,T4_M11,T5_M11,U1_M11,ZSPAN_M11,X0_M11,X2_M11,X1_M11
2023-04-06 03:00:00,,0832.3,5.02,0.00,22.8,21.3,00.0,31.1,24.3,10.1,0001.2,0009.79,0005.40,0005.07
2023-04-06 03:01:00,,0832.3,5.00,0.00,22.8,21.3,00.0,31.1,24.3,10.4,-000.5,0010.69,0005.37,0005.05
2023-04-06 03:02:00,,0832.3,5.00,0.00,22.8,21.3,00.0,31.1,24.3,10.5,-000.6,0010.75,0005.34,0005.03
2023-04-06 03:03:00,,0832.4,4.99,0.00,22.8,21.2,00.0,31.1,24.3,10.4,-001.0,0011.23,0005.34,0005.01
2023-04-06 03:04:00,,0832.4,4.99,0.00,22.8,21.2,00.0,31.1,24.3,10.2,-000.8,0011.34,0005.32,0004.99
2023-04-06 03:05:00,,0832.5,5.00,0.00,22.8,21.2,00.0,31.1,24.2,10.3,-000.8,0011.15,0005.35,0005.00
2023-04-06 03:06:00,,0832.5,5.01,0.00,22.8,21.1,00.0,31.1,24.2,10.4,-000.9,0010.92,0005.36,0005.02
2023-04-06 03:07:00,,0832.5,5.00,0.00,22.7,21.1,00.0,31.1,24.2,10.2,-000.1,0010.65,0005.39,0005.06
2023-04-06 03:08:00,,0832.5,5.01,0.00,22.7,21.1,00.0,31.1,24.2,10.2,0000.1,0010.67,0005.45,0005.09
2023-04-06 03:09:00,,0832.5,4.99,0.00,22.7,21.1,00.0,31.1,24.2,10.1,0000.6,0010.67,0005.48,0005.10
2023-04-06 03:10:00,,0832.6,4.99,0.00,22.7,21.1,00.0,31.1,24.2,09.9,0000.9,0010.72,0005.49,0005.09
2023-04-06 03:11:00,,0832.5,5.00,0.00,22.7,21.0,00.0,31.1,24.2,09.5,0001.4,0010.74,0005.46,0005.05
2023-04-06 03:12:00,,0832.5,5.00,0.00,22.7,21.0,00.0,31.0,24.2,09.4,0002.8,0009.98,0005.45,0005.01
2023-04-06 03:13:00,,0832.5,5.01,0.00,22.7,21.0,00.0,31.0,24.2,09.4,0003.2,0009.62,0005.41,0004.96
2023-04-06 03:14:00,,0832.5,4.99,0.00,22.7,21.0,00.0,31.0,24.2,09.3,0003.1,0009.20,0005.35,0004.90
2023-04-06 03:15:00,,0832.5,4.99,0.00,22.6,21.0,00.0,31.0,24.2,09.2,0003.3,0008.78,0005.28,0004.82
2023-04-06 03:16:00,,0832.5,5.00,0.00,22.6,21.0,00.0,31.0,24.1,08.7,0002.7,0008.47,0005.07,0004.66
2023-04-06 03:17:00,,0832.6,5.01,0.00,22.6,21.0,00.0,31.0,24.1,08.8,0000.0,0008.25,0004.90,0004.51
2023-04-06 03:18:00,,0832.6,5.00,0.00,22.6,20.9,00.0,31.0,24.1,08.9,0000.9,0008.12,0004.78,0004.39
2023-04-06 03:19:00,,0832.6,5.00,0.00,22.6,21.1,00.0,30.9,24.3,09.4,0000.5,0008.25,0004.68,0004.28
2023-04-06 03:20:00,,0832.6,5.00,0.00,22.7,21.9,00.0,30.9,24.6,09.5,0000.0,0008.01,0004.59,0004.21
2023-04-06 03:21:00,,0832.5,5.00,0.00,22.9,22.8,00.0,30.9,24.9,09.4,0000.0,0008.52,0004.51,0004.14
2023-04-06 03:22:00,,0832.5,4.98,0.00,22.9,23.0,00.0,31.0,24.8,09.3,0000.0,0008.68,0004.46,0004.10
2023-04-06 03:23:00,,0832.5,5.01,0.00,22.9,22.8,00.0,31.0,24.7,09.3,0000.0,0008.79,0004.39,0004.04
2023-04-06 03:24:00,,0832.5,5.00,0.00,22.9,22.6,00.0,31.1,24.6,09.2,0000.0,0008.76,0004.31,0003.97
2023-04-06 03:25:00,,0832.5,5.00,0.00,22.9,22.3,00.0,31.1,24.6,09.3,0000.0,0009.22,0004.22,0003.90
2023-04-06 03:26:00,,0832.5,5.00,0.00,22.9,22.1,00.0,31.1,24.5,09.3,0000.0,0009.87,0004.15,0003.83
2023-04-06 03:27:00,,0832.5,4.99,0.00,22.9,21.9,00.0,31.1,24.4,09.3,0000.0,0009.97,0004.18,0003.85
2023-04-06 03:28:00,,0832.5,5.01,0.00,22.8,21.7,00.0,31.1,24.4,09.3,0000.0,0010.02,0004.21,0003.86
2023-04-06 03:29:00,,0832.5,5.01,0.00,22.8,21.5,00.0,31.1,24.3,09.1,0000.0,0010.03,0004.18,0003.82
2023-04-06 03:30:00,,0832.5,5.00,0.00,22.8,21.4,00.0,31.1,24.3,09.0,0000.0,0009.73,0004.10,0003.76
2023-04-06 03:31:00,,0832.5,5.00,0.00,22.8,21.3,00.0,31.1,24.3,09.0,0000.0,0009.26,0003.97,0003.65
2023-04-06 03:32:00,,0832.5,4.99,0.00,22.8,21.2,00.0,31.1,24.2,08.9,0000.0,0008.83,0003.88,0003.56
2023-04-06 03:33:00,,0832.5,5.00,0.00,22.8,21.1,00.0,31.1,24.3,08.9,0000.0,0008.35,0003.80,0003.49
2023-04-06 03:34:00,,0832.6,5.02,0.00,22.8,21.0,00.0,31.1,24.2,08.9,0000.0,0008.01,0003.72,0003.43
2023-04-06 03:35:00,,0832.6,5.00,0.00,22.7,20.9,00.0,31.1,24.2,08.9,0000.0,0008.10,0003.66,0003.37
2023-04-06 03:36:00,,0832.7,4.99,0.00,22.7,20.8,00.0,31.1,24.1,08.9,0000.0,0007.50,0003.62,0003.33
2023-04-06 03:37:00,,0832.6,4.99,0.00,22.7,20.8,00.0,31.1,24.1,08.9,0000.0,0006.33,0003.59,0003.28
2023-04-06 03:38:00,,0832.7,5.00,0.00,22.6,20.8,00.0,31.1,24.1,08.9,0000.0,0006.14,0003.57,0003.24
2023-04-06 03:39:00,,0832.6,5.00,0.00,22.6,20.8,00.0,31.0,24.1,08.9,0000.0,0006.08,0003.55,0003.21
2023-04-06 03:40:00,,0832.7,5.01,0.00,22.6,20.8,00.0,31.0,24.1,08.8,0000.0,0005.91,0003.51,0003.18
2023-04-06 03:41:00,,0832.6,5.01,0.00,22.6,20.8,00.0,31.0,24.0,08.9,0000.0,0006.01,0003.53,0003.17
2023-04-06 03:42:00,,0832.7,5.01,0.00,22.6,20.8,00.0,31.0,24.0,08.9,0000.0,0006.23,0003.55,0003.17
2023-04-06 03:43:00,,0832.7,5.00,0.00,22.6,20.8,00.0,31.0,24.0,08.9,0000.0,0006.14,0003.54,0003.17
2023-04-06 03:44:00,,0832.7,4.99,0.00,22.6,20.8,00.0,31.0,24.1,09.0,0000.0,0006.10,0003.52,0003.16
2023-04-06 03:45:00,,0832.7,5.00,0.00,22.6,20.8,00.0,31.0,24.0,10.0,0000.0,0006.18,0003.54,0003.18
2023-04-06 03:46:00,,0832.7,5.00,0.00,22.6,20.8,00.0,30.9,24.1,10.5,0000.0,0006.19,0003.61,0003.21
2023-04-06 03:47:00,,0832.7,5.00,0.00,22.6,21.3,00.0,30.9,24.3,10.8,0000.0,0006.04,0003.63,0003.24
2023-04-06 03:48:00,,0832.7,5.01,0.00,22.7,22.3,00.0,30.9,24.7,11.1,0000.0,0006.01,0003.63,0003.27
2023-04-06 03:49:00,,0832.7,5.00,0.00,22.8,23.1,00.0,30.9,24.9,11.0,0000.0,0005.99,0003.65,0003.32
2023-04-06 03:50:00,,0832.8,4.98,0.00,22.9,23.1,00.0,31.0,24.8,11.3,0000.0,0005.80,0003.64,0003.35
2023-04-06 03:51:00,,0832.8,5.00,0.00,22.9,22.9,00.0,31.0,24.7,11.6,0000.0,0006.21,0003.70,0003.39
2023-04-06 03:52:00,,0832.8,5.01,0.00,22.9,22.6,00.0,31.1,24.6,11.7,0000.0,0006.93,0003.72,0003.42
2023-04-06 03:53:00,,0832.7,5.00,0.00,22.9,22.4,00.0,31.1,24.6,11.9,0000.0,0006.96,0003.75,0003.45
2023-04-06 03:54:00,,0832.8,5.00,0.00,22.9,22.2,00.0,31.1,24.5,12.2,0000.0,0007.00,0003.77,0003.47
2023-04-06 03:55:00,,0832.7,4.99,0.00,22.9,22.0,00.0,31.1,24.5,12.1,0000.0,0007.19,0003.83,0003.50
2023-04-06 03:56:00,,0832.7,5.00,0.00,22.9,21.9,00.0,31.1,24.5,12.3,0000.0,0007.59,0003.86,0003.50
2023-04-06 03:57:00,,0832.8,4.99,0.00,22.9,21.8,00.0,31.1,24.5,12.4,0000.0,0007.65,0003.84,0003.48
2023-04-06 03:58:00,,0832.7,5.02,0.00,22.9,21.7,00.0,31.1,24.5,12.6,0000.0,0007.65,0003.82,0003.47
2023-04-06 03:59:00,,0832.8,5.00,0.00,22.9,21.6,00.0,31.2,24.5,12.7,0000.0,,,
